Location: Artiguedieu
(43.5000°N, 0.5454°E)
Time: 09:26:55
(UTC+00:00)

Vanguard 1 Rocket - Pass Details

Date: 31 July 2021
Orbit: 650 x 4226 km, 34.3° (Epoch: 24 September)

Event Time Altitude Azimuth Distance (km) Brightness Sun altitude
Rises 12:53:59 0° 261° (W) 6,869 12.1 62.5°
Reaches altitude 10° 12:59:31 10° 258° (WSW) 5,261 11.7 62.1°
Maximum altitude 13:12:06 48° 190° (S) 1,914 10.8 60.9°
Drops below altitude 10° 13:18:48 10° 117° (ESE) 2,867 10.0 60.1°
Sets 13:20:56 0° 111° (ESE) 3,575 10.4 59.9°
